Showing default

SIRIUS XM-10, 64290

Orbit data source: Space-Track

SIRIUS XM-10, 64290 is a payload satellite owned by Sirius XM (US) in GEO that was launched on Sat, 07 Jun 2025 UTC via an FALCON 9 launch vehicle from the Air Force Eastern Test Range (AFETR). Payload-class satellites include a variety of spacecraft equipped with specific instruments for various scientific and technological missions. These include communications satellites like Starlink; space stations such as the ISS; scientific satellites like the Hubble; Earth observation satellites from companies like Planet Labs, Umbra, and HawkEye 360; GPS; miniature CubeSats for education and research; and military/defense satellites.

Loading next visibility...
Identifier
64290, 2025-122A
Orbit
GEO
Country
Flag of USUS
Related business
Manufacturer
Maxar Space Sol
Mission
Operational Commercial Communications
Bus & Motor
LS-1300, R-4D
Mass
~6,400 kg wet, ~2,800 kg dry
Launch date (UTC)
2025-06-07 (1 year ago)
Launch vehicle
FALCON 9
Launch site
Air Force Eastern Test Range (AFETR)
Object type
Payload
Rocket body
Debris
Shape & HBR
Box + 2 Pan, 15.0 m
Radar Cross Section
98.149 m², Large (>1 m²)

Expand to show TLE details & history
Last TLE update: 12 hours ago

TLE from 12 hours ago
0 SIRIUS XM-10
1 64290U 25122A   26171.36544730 -.00000022  00000-0  00000+0 0  9996
2 64290   0.0222  37.6064 0001887 326.2448 280.1173  1.00272116  3711
Epoch: 2026-06-20T08:46Z
TLE epoch observation values (Epoch: 2026-06-20T08:46:14.646Z)
Latitude
-0.03724°
Longitude
-116.18252°
Altitude
35,784.608 km
Speed
3.075 km/s
True Right ascension
18h 55m 50s
True Declination
0° 02' 14"
Sunlit
Object was in daylight at epoch
Visualization orbit readout
Latitude
Unknown
Longitude
Unknown
Altitude
Unknown
Speed
Unknown
Apparent Right ascension
Unknown
Apparent Declination
Unknown
Sunlit
N/A
Visualization observer readout
Local Sidereal Time
07:19:34
Azimuth
Unknown
Elevation
Unknown
Doppler factor
Unknown
Orbital elements
Apogee altitude
35,795.529 km
Perigee altitude
35,779.616 km
Semi-major axis
42,165.71 km
Eccentricity
0.00019
Inclination
0.0222°
RAAN
37.6064°
Arg. of periapsis
326.2448°
True anomaly
280.09601°
Mean anomaly
280.1173°
Eccentric anomaly
280.10666°
Mean motion
0.25067 °/min
Orbital period
1,436.15 mins
BSTAR
0
Loading maneuver chart data...
Computing Atmospheric mass density...
Loading historical data...
Loading historical data...
Loading historical data...
Loading historical data...
Loading historical data...
Loading historical data...
Loading historical data...
Other satellites on launch #122 in the year 2025 (2025-06-07 UTC)

Documentation

Showing up to 5 results
|